Regional Weather Roundup
Issued by NWS

Home | Current Version | Previous Version | Text Only | Print | Product List | Glossary On
Versions: 1 2 3 4 5 6 7 8 9 10 11 12 13 14 15 16 17 18 19 20 21 22 23 24 25 26 27 28 29 30 31 32 33 34 35 36 37 38 39 40 41 42 43 44 45 46 47 48 49 50
000
ASUS44 KFWD 182215
RWRTX
NORTH TEXAS HOURLY WEATHER ROUNDUP
NATIONAL WEATHER SERVICE FORT WORTH TX
500 PM CDT THU SEP 18 2014

NOTE: "FAIR" INDICATES FEW OR NO CLOUDS BELOW 12,000 FEET WITH NO
SIGNIFICANT WEATHER AND/OR OBSTRUCTIONS TO VISIBILITY.

TXZ118-119-182300-
DALLAS/FORT WORTH METROPLEX

CITY           SKY/WX    TMP DP  RH WIND       PRES   REMARKS
DFW AIRPORT    CLOUDY    86  70  58 E10       29.84F HX  90
DALLAS LOVE    CLOUDY    85  69  58 E12       29.84F
FTW MEACHAM    CLOUDY    86  70  58 E10       29.84F HX  90
DAL-EXECUTIVE  CLOUDY    89  70  53 E14       29.84F HX  94
FTW-ALLIANCE   CLOUDY    82  70  66 NE10      29.84F
FTW-NAS-JRB    CLOUDY    89  69  51 E8        29.88F HX  93
FTW-SPINKS     MOSUNNY   88  66  48 E8        29.85S HX  90
ARLINGTON      CLOUDY    87  68  52 E12       29.84F HX  90
GRAND PRAIRIE  MOSUNNY   88  68  51 MISG      29.85S HX  91
ADDISON        PTSUNNY   84  68  58 E10G17    29.85F
MESQUITE       PTSUNNY   86  66  51 E7        29.85S
LANCASTER      CLOUDY    87  68  53 E8        29.85S HX  90
$$

TXZ091>094-102>105-117-120-121-131>134-182300-
NORTH CENTRAL TEXAS

CITY           SKY/WX    TMP DP  RH WIND       PRES   REMARKS
SHRMAN/DENISON CLOUDY    83  69  61 CALM      29.88S
GAINESVILLE    CLOUDY    81  68  65 E6        29.90S
BOWIE          CLOUDY    80  70  72 SE3       29.88F
BRIDGEPORT     CLOUDY    82  69  64 E3        29.88F
DECATUR        CLOUDY    80  69  70 NE7       29.88S
DENTON         CLOUDY    82  71  69 E3        29.86S
MCKINNEY       CLOUDY    84  68  58 NE7       29.85F
GREENVILLE     CLOUDY    88  66  48 E5        29.85S HX  90
ROCKWALL       CLOUDY    84  69  61 E7        29.84S
TERRELL        PTSUNNY   89  67  47 E9        29.85F HX  92
WAXAHACHIE     CLOUDY    87  67  50 E6        29.86S
CLEBURNE       CLOUDY    90  70  51 E10       29.86F HX  95
GRANBURY       CLOUDY    87  69  54 E3        29.86S HX  91
$$

TXZ083>090-098>101-113>116-127>130-139>142-154-155-182300-
WESTERN NORTH TEXAS

CITY           SKY/WX    TMP DP  RH WIND       PRES   REMARKS
WICHITA FALLS  CLOUDY    79  69  71 SE7       29.88F
WF-KICKAPOO    CLOUDY    79  68  68 CALM      29.90S
VERNON         CLOUDY    82  67  61 SE6       29.91F
ABILENE        LGT RAIN  69  68  96 NE12      29.92F
ABILENE-DYESS  PTSUNNY   69  65  87 NE12      29.92S
BRECKENRIDGE   DRIZZLE   75  74  97 NW6       29.89F
GRAHAM         CLOUDY    78  65  62 CALM      29.87F
MINERAL WELLS  CLOUDY    81  71  71 N7        29.86S
STEPHENVILLE   CLOUDY    83  69  63 NE8       29.90S
COMANCHE       CLOUDY    82  71  69 NE9       29.89S
BROWNWOOD      CLOUDY    79  72  78 NE7       29.88S
COLEMAN        TSTM      76  73  91 NE9       29.90S
BRADY          SUNNY     75  72  88 NE14      29.88S
$$

TXZ143>147-156>162-174-175-182300-
CENTRAL TEXAS

CITY           SKY/WX    TMP DP  RH WIND       PRES   REMARKS
WACO           LGT RAIN  80  73  79 SE7       29.85S
WACO-TSTC      SUNNY     81  73  78 SE8       29.85S
WACO-MCGREGOR  CLOUDY    81  70  69 SE8       29.87S
HILLSBORO      CLOUDY    88  68  50 E12       29.85R HX  92
CORSICANA      LGT RAIN  80  70  71 SE21G29   29.86R
MEXIA          RAIN      73  73  97 SE14G20   29.87R
HEARNE         LGT RAIN  75  73  95 E3        29.86R
CAMERON        CLOUDY    75  73  95 E5        29.85S
TEMPLE         CLOUDY    75  70  83 E7        29.86R
KILLEEN        TSTM      77  73  88 VRB7      29.88R
KILLEEN-SKYLRK CLOUDY    75  68  78 E6        29.88R
FORT HOOD      CLOUDY    75  73  94 SE5       29.88R THUNDER
GATESVILLE     CLOUDY    79  75  89 E3        29.89R
HAMILTON       CLOUDY    78  77  97 E7        29.90R
LAMPASAS       RAIN      72  71  96 CALM      29.89F
$$

TXZ095>097-106>112-122>126-135>138-148>153-164>167-182300-
EAST TEXAS

CITY           SKY/WX    TMP DP  RH WIND       PRES   REMARKS
PARIS          PTSUNNY   84  66  54 SE7       29.87S
SULPHUR SPRNGS PTSUNNY   85  67  56 SE7       29.87S
MOUNT PLEASANT PTSUNNY   85  71  62 E7        29.87S HX  90
GILMER         PTSUNNY   82  70  65 SE9       29.89R
MINEOLA        PTSUNNY   86  73  66 E6        29.86S HX  93
TYLER          MOSUNNY   79  69  71 SE13      29.89R
LONGVIEW       RAIN      75  72  90 SW8       29.87F FOG
MARSHALL       PTSUNNY   83  73  70 S6        29.88F
ATHENS         MOSUNNY   79  68  69 SE12G21   29.87R
PALESTINE      PTSUNNY   73  70  90 SE7       29.90R
JACKSONVILLE   PTSUNNY   75  69  81 SE8       29.92R
HENDERSON      PTSUNNY   80  70  70 S7        29.90R
NACOGDOCHES    PTSUNNY   72  68  88 SE7       29.90R
LUFKIN         HVY RAIN  73  69  87 VRB3      29.90F FOG
$$

SUPPLEMENTAL OBSERVATIONS (CENTRAL)

CITY           SKY/WX    TMP DP  RH WIND       PRES   REMARKS
LAKE TEXOMA      N/A     81  66  61 E3          N/A
CADDO GRASSLND   N/A     86  68  54 E5          N/A
PAT MAYSE LAKE   N/A     84  66  54 E2          N/A
ATHENS           N/A     79  68  69 SE12G22     N/A
PALESTINE        N/A     73  66  78 S5G13       N/A
LAKE LIMESTONE   N/A     75  72  88 E10         N/A
MCGREGOR         N/A     79  72  78 E7          N/A
TEMPLE           N/A     73  70  88 E8          N/A
$$

SUPPLEMENTAL OBSERVATIONS (WEST)

CITY           SKY/WX    TMP DP  RH WIND       PRES   REMARKS
MILLERS CREEK    N/A     72  68  88 SW2G10      N/A
POSSUM KINGDOM   N/A     75  68  78 N3          N/A
LBJ GRASSLAND    N/A     82  70  65 NE5         N/A
GRANBURY         N/A     86  68  54 E3          N/A
COMANCHE         N/A     81  72  74 NE12        N/A
HAMBY            N/A     68  64  88 NE6         N/A
IVIE RESERVOIR   N/A     79  70  73 NE13        N/A
COLORADO BEND    N/A     72  68  88 E8          N/A
$$

SUPPLEMENTAL OBSERVATIONS (EAST)

CITY           SKY/WX    TMP DP  RH WIND       PRES   REMARKS
CLARKSVILLE      N/A     84  70  61 E6          N/A
TEXARKANA        N/A     81  72  74 SE2         N/A
LINDEN           N/A     86  72  62 S3          N/A  HX  92
GILMER           N/A     82  70  65 S7G17       N/A
HENDERSON        N/A     81  68  65 S9          N/A
LUFKIN           N/A     72  68  88 MISG        N/A
N SABINE NF      N/A     81  72  74 MISG        N/A
S SABINE NF      N/A     75  70  83 SW2         N/A
$$

SUPPLEMENTAL OBSERVATIONS ARE A COLLECTION OF AUTOMATED INSTRUMENTS
THAT ARE MAINTAINED BY A VARIETY OF FEDERAL AND STATE AGENCIES.
CERTAIN ELEMENTS...SUCH AS HUMIDITY VALUES AND SUSTAINED WIND
SPEEDS...MAY BE APPROXIMATED.




USA.gov is the U.S. government's official web portal to all federal, state and local government web resources and services.